Zurück zum Katalog

STARLINK-30041

AktivKommunikationVLEO
NORAD 57613·PAYLOAD·🇺🇸 United States

Gestartet Aug 11, 2023 von Cape Canaveral Space Force Station

Loading…

Nächste Überflüge (nächste 24 Stunden)

TLE

AktuellSource: CelesTrak SupGP

Epoche: Sep 14, 2026, 22:00 UTC

1 57613C 23119M   26257.91715278 -.00005661  00000+0 -20510-3 0  2577
2 57613  43.0016  92.6936 0001553 265.1561 283.7268 15.27569859    17

Verfolge STARLINK-30041 in Echtzeit mit AllMySat

Download on the App Store